• Em Portugal
  • Lista de países
  • Para 7 dias
  • Temperatura da água
  • Mapas de satélite
  • Mapa do tempo
  • Widgets de tempo
  • user-avatar
    Iniciar Sessão

    Previsão horária em Kalat

    Hoje, 22 Novembro, Quarta-feira

    Tempo Temperatura Precipitação Vento Pressão Humidade
    00:00 -12°C° 0 mm 2 m/s 470 mmHg 23%
    01:00 -12°C° 0 mm 2 m/s 470 mmHg 22%
    02:00 -12°C° 0 mm 2 m/s 470 mmHg 21%
    03:00 -12°C° 0 mm 2 m/s 470 mmHg 20%
    04:00 -12°C° 0 mm 2 m/s 470 mmHg 19%
    05:00 -12°C° 0 mm 2 m/s 470 mmHg 18%
    06:00 -12°C° 0 mm 2 m/s 470 mmHg 19%
    07:00 -12°C° 0 mm 2 m/s 470 mmHg 20%
    08:00 -10°C° 0 mm 2 m/s 471 mmHg 20%
    09:00 -8°C° 0 mm 2 m/s 472 mmHg 19%
    10:00 -4°C° 0 mm 1 m/s 473 mmHg 18%
    11:00 -2°C° 0 mm 1 m/s 474 mmHg 17%
    12:00 -2°C° 0 mm 1 m/s 474 mmHg 19%
    13:00 -1°C° 0 mm 1 m/s 474 mmHg 20%
    14:00 -1°C° 0 mm 1 m/s 474 mmHg 21%
    15:00 -2°C° 0 mm 1 m/s 473 mmHg 26%
    16:00 -4°C° 0 mm 1 m/s 472 mmHg 30%
    17:00 -6°C° 0 mm 1 m/s 471 mmHg 34%
    18:00 -8°C° 0 mm 2 m/s 471 mmHg 35%
    19:00 -8°C° 0 mm 2 m/s 471 mmHg 36%
    20:00 -10°C° 0 mm 3 m/s 471 mmHg 37%
    21:00 -10°C° 0 mm 3 m/s 471 mmHg 35%
    22:00 -10°C° 0 mm 3 m/s 471 mmHg 33%
    23:00 -10°C° 0 mm 3 m/s 471 mmHg 31%

    Amanhã, 23 Novembro, Quinta-feira

    Tempo Temperatura Precipitação Vento Pressão Humidade
    00:00 -10°C° 0 mm 3 m/s 470 mmHg 30%
    01:00 -10°C° 0 mm 3 m/s 470 mmHg 29%
    02:00 -10°C° 0 mm 3 m/s 470 mmHg 27%
    03:00 -10°C° 0 mm 3 m/s 470 mmHg 26%
    04:00 -10°C° 0 mm 3 m/s 470 mmHg 25%
    05:00 -9°C° 0 mm 2 m/s 470 mmHg 24%
    06:00 -9°C° 0 mm 2 m/s 470 mmHg 24%
    07:00 -9°C° 0 mm 2 m/s 470 mmHg 24%
    08:00 -8°C° 0 mm 2 m/s 471 mmHg 24%
    09:00 -7°C° 0 mm 2 m/s 472 mmHg 23%
    10:00 -5°C° 0 mm 2 m/s 473 mmHg 23%
    11:00 -2°C° 0 mm 1 m/s 474 mmHg 22%
    12:00 -2°C° 0 mm 1 m/s 474 mmHg 23%
    13:00 -3°C° 0 mm 2 m/s 474 mmHg 24%
    14:00 -3°C° 0 mm 2 m/s 474 mmHg 25%
    15:00 -2°C° 0 mm 1 m/s 473 mmHg 30%
    16:00 -3°C° 0 mm 1 m/s 473 mmHg 35%
    17:00 -4°C° 0 mm 1 m/s 472 mmHg 40%
    18:00 -6°C° 0 mm 1 m/s 472 mmHg 40%
    19:00 -6°C° 0 mm 1 m/s 472 mmHg 41%
    20:00 -8°C° 0 mm 2 m/s 471 mmHg 41%
    21:00 -8°C° 0 mm 2 m/s 471 mmHg 41%
    22:00 -8°C° 0 mm 2 m/s 471 mmHg 41%
    23:00 -9°C° 0 mm 2 m/s 471 mmHg 41%

    Depois de amanhã, 24 Novembro, Sexta-feira

    Tempo Temperatura Precipitação Vento Pressão Humidade
    00:00 -9°C° 0 mm 2 m/s 471 mmHg 40%
    01:00 -9°C° 0 mm 2 m/s 471 mmHg 40%
    02:00 -9°C° 0 mm 2 m/s 471 mmHg 40%
    03:00 -9°C° 0 mm 2 m/s 471 mmHg 40%
    04:00 -9°C° 0 mm 2 m/s 471 mmHg 40%
    05:00 -9°C° 0 mm 2 m/s 471 mmHg 40%
    06:00 -9°C° 0 mm 2 m/s 471 mmHg 40%
    07:00 -8°C° 0 mm 2 m/s 471 mmHg 40%
    08:00 -8°C° 0 mm 2 m/s 472 mmHg 40%
    09:00 -6°C° 0 mm 2 m/s 473 mmHg 38%
    10:00 -5°C° 0 mm 2 m/s 474 mmHg 36%
    11:00 -3°C° 0 mm 2 m/s 475 mmHg 34%
    12:00 -3°C° 0 mm 2 m/s 475 mmHg 35%
    13:00 -3°C° 0 mm 2 m/s 475 mmHg 36%
    14:00 -2°C° 0 mm 2 m/s 475 mmHg 37%
    15:00 -3°C° 0 mm 2 m/s 474 mmHg 43%
    16:00 -4°C° 0 mm 2 m/s 474 mmHg 48%
    17:00 -3°C° 0 mm 1 m/s 473 mmHg 54%
    18:00 -6°C° 0 mm 2 m/s 473 mmHg 56%
    19:00 -6°C° 0 mm 2 m/s 473 mmHg 58%
    20:00 -6°C° 0 mm 2 m/s 473 mmHg 60%
    21:00 -7°C° 0 mm 2 m/s 473 mmHg 62%
    22:00 -7°C° 0 mm 2 m/s 473 mmHg 64%
    23:00 -7°C° 0 mm 2 m/s 473 mmHg 65%

    25 Novembro, Sábado

    Tempo Temperatura Precipitação Vento Pressão Humidade
    00:00 -8°C° 0 mm 2 m/s 473 mmHg 64%
    01:00 -8°C° 0 mm 2 m/s 472 mmHg 63%
    02:00 -10°C° 0 mm 3 m/s 472 mmHg 62%
    03:00 -10°C° 0 mm 3 m/s 471 mmHg 61%
    04:00 -10°C° 0 mm 3 m/s 471 mmHg 60%
    05:00 -10°C° 0 mm 3 m/s 471 mmHg 58%
    06:00 -10°C° 0 mm 3 m/s 471 mmHg 57%
    07:00 -10°C° 0 mm 3 m/s 471 mmHg 56%
    08:00 -10°C° 0 mm 3 m/s 472 mmHg 55%
    09:00 -8°C° 0 mm 3 m/s 473 mmHg 51%
    10:00 -6°C° 0 mm 3 m/s 474 mmHg 47%
    11:00 -5°C° 0 mm 4 m/s 475 mmHg 43%
    12:00 -5°C° 0 mm 4 m/s 474 mmHg 43%
    13:00 -4°C° 0 mm 4 m/s 474 mmHg 43%
    14:00 -4°C° 0 mm 4 m/s 474 mmHg 43%
    15:00 -5°C° 0,1 mm 3 m/s 473 mmHg 49%
    16:00 -6°C° 0,1 mm 3 m/s 473 mmHg 56%
    17:00 -7°C° 0,1 mm 3 m/s 472 mmHg 62%
    18:00 -6°C° 0,3 mm 2 m/s 472 mmHg 67%
    19:00 -7°C° 0,3 mm 2 m/s 473 mmHg 72%
    20:00 -7°C° 0,3 mm 2 m/s 473 mmHg 76%
    21:00 -8°C° 0,3 mm 2 m/s 473 mmHg 78%
    22:00 -8°C° 0,3 mm 2 m/s 473 mmHg 80%
    23:00 -8°C° 0,3 mm 2 m/s 473 mmHg 82%

    26 Novembro, Domingo

    Tempo Temperatura Precipitação Vento Pressão Humidade
    00:00 -8°C° 0,2 mm 2 m/s 473 mmHg 82%
    01:00 -9°C° 0,2 mm 2 m/s 473 mmHg 83%
    02:00 -8°C° 0,2 mm 1 m/s 473 mmHg 83%
    03:00 -9°C° 0 mm 2 m/s 473 mmHg 82%
    04:00 -10°C° 0 mm 2 m/s 472 mmHg 82%
    05:00 -12°C° 0 mm 2 m/s 472 mmHg 81%
    06:00 -10°C° 0 mm 2 m/s 472 mmHg 79%
    07:00 -10°C° 0 mm 2 m/s 472 mmHg 76%
    08:00 -10°C° 0 mm 2 m/s 473 mmHg 74%
    09:00 -9°C° 0 mm 2 m/s 474 mmHg 69%
    10:00 -7°C° 0 mm 2 m/s 475 mmHg 63%
    11:00 -6°C° 0 mm 3 m/s 476 mmHg 58%
    12:00 -6°C° 0 mm 3 m/s 476 mmHg 56%
    13:00 -6°C° 0 mm 3 m/s 476 mmHg 54%
    14:00 -5°C° 0 mm 3 m/s 476 mmHg 52%
    15:00 -5°C° 0 mm 2 m/s 475 mmHg 58%
    16:00 -6°C° 0 mm 2 m/s 475 mmHg 63%
    17:00 -7°C° 0 mm 1 m/s 474 mmHg 69%
    18:00 -7°C° 0 mm 1 m/s 474 mmHg 70%
    19:00 -8°C° 0 mm 1 m/s 474 mmHg 72%
    20:00 -8°C° 0 mm 1 m/s 473 mmHg 73%
    21:00 -8°C° 0 mm 1 m/s 473 mmHg 73%
    22:00 -8°C° 0 mm 1 m/s 473 mmHg 72%
    23:00 -10°C° 0 mm 2 m/s 473 mmHg 72%

    27 Novembro, Segunda-feira

    Tempo Temperatura Precipitação Vento Pressão Humidade
    00:00 -10°C° 0 mm 2 m/s 472 mmHg 71%
    01:00 -12°C° 0 mm 2 m/s 472 mmHg 69%
    02:00 -12°C° 0 mm 2 m/s 471 mmHg 68%
    03:00 -12°C° 0 mm 2 m/s 471 mmHg 66%
    04:00 -12°C° 0 mm 2 m/s 471 mmHg 64%
    05:00 -12°C° 0 mm 2 m/s 471 mmHg 61%
    06:00 -12°C° 0 mm 2 m/s 471 mmHg 59%
    07:00 -12°C° 0 mm 2 m/s 472 mmHg 57%
    08:00 -12°C° 0 mm 2 m/s 472 mmHg 55%
    09:00 -9°C° 0 mm 2 m/s 473 mmHg 51%
    10:00 -8°C° 0 mm 2 m/s 474 mmHg 47%
    11:00 -6°C° 0 mm 2 m/s 475 mmHg 42%
    12:00 -6°C° 0 mm 2 m/s 474 mmHg 45%
    13:00 -6°C° 0 mm 2 m/s 474 mmHg 48%
    14:00 -6°C° 0 mm 2 m/s 474 mmHg 51%
    15:00 -7°C° 0,1 mm 2 m/s 473 mmHg 57%
    16:00 -8°C° 0,1 mm 2 m/s 472 mmHg 62%
    17:00 -8°C° 0,1 mm 1 m/s 472 mmHg 67%
    18:00 -8°C° 0,1 mm 1 m/s 472 mmHg 70%
    19:00 -8°C° 0,1 mm 1 m/s 472 mmHg 72%
    20:00 -9°C° 0,1 mm 1 m/s 472 mmHg 74%
    21:00 -10°C° 0 mm 2 m/s 471 mmHg 75%
    22:00 -10°C° 0 mm 2 m/s 471 mmHg 75%
    23:00 -10°C° 0 mm 2 m/s 471 mmHg 75%
    Mostrar mais